DABT

Batna Airport

Airport
ICAO code
DABT
IATA Code
BLJ
Summary
ICAO Region
AFI
ICAO Territory
Location

, Batna

Serving
Batna
Elevation
2697 ft
Coordinates
35° 45' 8" N , 6° 18' 31" E
Metar
DABT 191100Z 36005KT 9999 BKN023 13/M00 Q1022

Runways

Designator Length Width Surface Rops
5/23 3000 45 ASP Yes/Yes

Airport map

Aerial View

SKYbrary Partners:

Safety knowledge contributed by: